FW9878 Weather Reports


time (UTC)temp
C
wind
direction
speed
KPH
gust
KPH
rain 1hr
cm
rain 24hr
cm
rain mn
cm
humidity
%
barometer
mb
20260906021538 29 0 0.0 0.0 0.00 0.00 0.00 75 1011.7
20260906020105 30 0 0.0 3.2 0.00 0.00 0.00 71 1011.4
20260906020033 30 0 0.0 3.2 0.00 0.00 0.00 71 1011.4
20260906014535 30 0 0.0 0.0 0.00 0.00 0.00 72 1011.2
20260906013054 30 0 0.0 1.6 0.00 0.00 0.00 71 1011.2
20260906011544 30 0 0.0 1.6 0.00 0.00 0.00 70 1011.0
20260906010036 31 0 0.0 0.0 0.00 0.00 0.00 67 1010.9
20260906004534 32 0 0.0 3.2 0.00 0.00 0.00 66 1010.8
20260906003036 32 62 1.6 6.4 0.00 0.00 0.00 63 1010.6
20260906001533 33 19 1.6 8.0 0.00 0.00 0.00 61 1010.8
20260906000112 35 59 3.2 6.4 0.00 0.00 0.00 56 1010.8
20260906000035 35 59 3.2 6.4 0.00 0.00 0.00 56 1010.8
20260905234538 36 0 0.0 3.2 0.00 0.00 0.00 53 1010.7
20260905233041 36 3 1.6 6.4 0.00 0.00 0.00 51 1010.8
20260905231534 36 30 1.6 4.8 0.00 0.00 0.00 50 1010.8
20260905230040 36 322 3.2 8.0 0.00 0.00 0.00 48 1010.9
20260905224535 37 80 1.6 4.8 0.00 0.00 0.00 49 1010.7
20260905223052 36 35 3.2 12.9 0.00 0.00 0.00 48 1010.7
20260905221535 37 49 3.2 14.5 0.00 0.00 0.00 47 1010.7
20260905220039 37 343 3.2 6.4 0.00 0.00 0.00 45 1010.7
20260905214532 38 308 3.2 9.7 0.00 0.00 0.00 44 1010.6
20260905213038 37 48 4.8 9.7 0.00 0.00 0.00 46 1010.6
20260905211535 38 331 1.6 6.4 0.00 0.00 0.00 44 1010.8
20260905210047 37 62 1.6 12.9 0.00 0.00 0.00 43 1010.8
20260905204536 38 26 3.2 12.9 0.00 0.00 0.00 44 1011.0
20260905203051 37 105 4.8 12.9 0.00 0.00 0.00 44 1010.9
20260905201535 37 307 6.4 16.1 0.00 0.00 0.00 43 1011.1
20260905200034 37 58 3.2 16.1 0.00 0.00 0.00 47 1011.3
20260905194539 37 292 4.8 14.5 0.00 0.00 0.00 45 1011.5
20260905193037 37 321 4.8 12.9 0.00 0.00 0.00 47 1011.8
20260905191542 37 19 4.8 14.5 0.00 0.00 0.00 47 1012.0
20260905190035 37 332 4.8 16.1 0.00 0.00 0.00 48 1012.0
20260905184543 37 263 3.2 16.1 0.00 0.00 0.00 47 1012.3
20260905183033 37 322 6.4 14.5 0.00 0.00 0.00 46 1012.3
20260905181535 37 235 4.8 9.7 0.00 0.00 0.00 49 1012.5
20260905180035 37 269 3.2 8.0 0.00 0.00 0.00 51 1012.5
20260905174536 36 35 3.2 9.7 0.00 0.00 0.00 53 1012.8
20260905173037 36 250 3.2 9.7 0.00 0.00 0.00 53 1013.1
20260905171538 36 340 4.8 14.5 0.00 0.00 0.00 54 1013.3
20260905170034 36 294 3.2 9.7 0.00 0.00 0.00 54 1013.3
20260905164543 35 21 4.8 9.7 0.00 0.00 0.00 57 1013.6
20260905163044 34 0 1.6 9.7 0.00 0.00 0.00 61 1013.7
20260905161541 34 60 1.6 9.7 0.00 0.00 0.00 61 1013.7
20260905160109 33 317 3.2 9.7 0.00 0.00 0.00 62 1013.9
20260905160036 33 317 3.2 9.7 0.00 0.00 0.00 62 1013.9
20260905154537 33 21 3.2 6.4 0.00 0.00 0.00 64 1013.9
20260905153037 32 255 3.2 6.4 0.00 0.00 0.00 66 1013.9
20260905151536 31 270 1.6 8.0 0.00 0.00 0.00 68 1014.0
20260905150042 32 324 4.8 9.7 0.00 0.00 0.00 65 1013.9
20260905144537 31 306 4.8 12.9 0.00 0.00 0.00 68 1013.8
20260905143035 31 306 4.8 12.9 0.00 0.00 0.00 69 1013.9
20260905141535 30 265 4.8 12.9 0.00 0.00 0.00 74 1013.8
20260905140037 29 322 1.6 8.0 0.00 0.00 0.00 78 1013.8
20260905134533 28 280 0.0 4.8 0.00 0.00 0.00 79 1013.8
20260905133035 29 0 0.0 0.0 0.00 0.00 0.00 79 1013.7
20260905131537 27 157 0.0 3.2 0.00 0.00 0.00 86 1013.7
20260905130035 26 161 1.6 3.2 0.00 0.00 0.00 91 1013.6
20260905124536 25 154 1.6 1.6 0.00 0.00 0.00 95 1013.5
20260905123039 23 0 0.0 3.2 0.00 0.00 0.00 98 1013.4
20260905121538 23 0 0.0 1.6 0.00 0.00 0.00 98 1013.3
20260905120041 22 184 0.0 0.0 0.00 0.00 0.00 98 1013.2
20260905114536 23 0 0.0 0.0 0.00 0.00 0.00 98 1013.0
20260905113033 23 0 0.0 0.0 0.00 0.00 0.00 98 1012.9
20260905111536 23 0 0.0 0.0 0.00 0.00 0.00 98 1012.9
20260905110151 23 0 0.0 0.0 0.00 0.00 0.00 98 1012.8
20260905110112 23 0 0.0 0.0 0.00 0.00 0.00 98 1012.8
20260905110036 23 0 0.0 0.0 0.00 0.00 0.00 98 1012.8
20260905104539 23 0 0.0 0.0 0.00 0.00 0.00 98 1012.8
20260905103038 23 0 0.0 1.6 0.00 0.00 0.00 97 1012.8
20260905101545 23 0 0.0 0.0 0.00 0.00 0.00 97 1012.8
20260905100035 23 0 0.0 0.0 0.00 0.00 0.00 96 1012.8
20260905094615 23 0 0.0 0.0 0.00 0.00 0.00 97 1012.8
20260905093033 23 0 0.0 0.0 0.00 0.00 0.00 96 1012.8
20260905091535 23 0 0.0 0.0 0.00 0.00 0.00 96 1012.7
20260905090035 23 0 0.0 0.0 0.00 0.00 0.00 95 1012.7
20260905084544 24 0 0.0 0.0 0.00 0.00 0.00 94 1012.6
20260905083034 25 0 0.0 0.0 0.00 0.00 0.00 94 1012.7
20260905081540 25 0 0.0 0.0 0.00 0.00 0.00 93 1012.9
20260905080113 25 0 0.0 0.0 0.00 0.00 0.00 92 1013.0
20260905080033 25 0 0.0 0.0 0.00 0.00 0.00 92 1013.0
20260905054550 25 0 0.0 0.0 0.00 0.00 0.00 90 1013.2
20260905053036 25 0 0.0 0.0 0.00 0.00 0.00 90 1013.4
20260905051538 26 0 0.0 0.0 0.00 0.00 0.00 89 1013.4
20260905050036 26 0 0.0 1.6 0.00 0.00 0.00 88 1013.1
20260905044535 26 0 0.0 0.0 0.00 0.00 0.00 86 1013.1
20260905043040 26 0 0.0 0.0 0.00 0.00 0.00 85 1013.1
20260905041607 26 0 0.0 0.0 0.00 0.00 0.00 86 1013.1
20260905041533 26 0 0.0 0.0 0.00 0.00 0.00 86 1013.1
20260905040038 26 0 0.0 0.0 0.00 0.00 0.00 84 1013.1
20260905034558 26 0 0.0 0.0 0.00 0.00 0.00 84 1013.1
20260905033036 27 0 0.0 0.0 0.00 0.00 0.00 84 1013.3
20260905031540 27 0 0.0 0.0 0.00 0.00 0.00 83 1013.4
20260905030036 27 0 0.0 0.0 0.00 0.00 0.00 83 1013.4
20260905024556 27 0 0.0 0.0 0.00 0.00 0.00 82 1013.4
20260905023037 27 0 0.0 0.0 0.00 0.00 0.00 81 1013.1